Year,Month,Day,Hour,Minute,Value (Times are PST for barometer in hPa)
2015,12,12,00,00,1006.47
2015,12,12,00,01,1006.50
2015,12,12,00,02,1006.50
2015,12,12,00,03,1006.47
2015,12,12,00,04,1006.54
2015,12,12,00,05,1006.54
2015,12,12,00,06,1006.54
2015,12,12,00,07,1006.57
2015,12,12,00,08,1006.64
2015,12,12,00,09,1006.60
2015,12,12,00,10,1006.64
2015,12,12,00,11,1006.64
2015,12,12,00,12,1006.60
2015,12,12,00,13,1006.64
2015,12,12,00,14,1006.64
2015,12,12,00,15,1006.60
2015,12,12,00,16,1006.57
2015,12,12,00,17,1006.57
2015,12,12,00,18,1006.64
2015,12,12,00,19,1006.67
2015,12,12,00,20,1006.71
2015,12,12,00,21,1006.71
2015,12,12,00,22,1006.77
2015,12,12,00,23,1006.74
2015,12,12,00,24,1006.74
2015,12,12,00,25,1006.74
2015,12,12,00,26,1006.71
2015,12,12,00,27,1006.71
2015,12,12,00,28,1006.74
2015,12,12,00,29,1006.74
2015,12,12,00,30,1006.77
2015,12,12,00,31,1006.74
2015,12,12,00,32,1006.74
2015,12,12,00,33,1006.74
2015,12,12,00,34,1006.77
2015,12,12,00,35,1006.74
2015,12,12,00,36,1006.71
2015,12,12,00,37,1006.74
2015,12,12,00,38,1006.71
2015,12,12,00,39,1006.74
2015,12,12,00,40,1006.74
2015,12,12,00,41,1006.77
2015,12,12,00,42,1006.74
2015,12,12,00,43,1006.74
2015,12,12,00,44,1006.74
2015,12,12,00,45,1006.74
2015,12,12,00,46,1006.71
2015,12,12,00,47,1006.67
2015,12,12,00,48,1006.71
2015,12,12,00,49,1006.71
2015,12,12,00,50,1006.67
2015,12,12,00,51,1006.67
2015,12,12,00,52,1006.67
2015,12,12,00,53,1006.64
2015,12,12,00,54,1006.60
2015,12,12,00,55,1006.57
2015,12,12,00,56,1006.57
2015,12,12,00,57,1006.57
2015,12,12,00,58,1006.54
2015,12,12,00,59,1006.47
2015,12,12,01,00,1006.50
2015,12,12,01,01,1006.50
2015,12,12,01,02,1006.50
2015,12,12,01,03,1006.47
2015,12,12,01,04,1006.47
2015,12,12,01,05,1006.47
2015,12,12,01,06,1006.44
2015,12,12,01,07,1006.44
2015,12,12,01,08,1006.40
2015,12,12,01,09,1006.37
2015,12,12,01,10,1006.33
2015,12,12,01,11,1006.40
2015,12,12,01,12,1006.33
2015,12,12,01,13,1006.37
2015,12,12,01,14,1006.40
2015,12,12,01,15,1006.37
2015,12,12,01,16,1006.37
2015,12,12,01,17,1006.40
2015,12,12,01,18,1006.33
2015,12,12,01,19,1006.40
2015,12,12,01,20,1006.37
2015,12,12,01,21,1006.33
2015,12,12,01,22,1006.33
2015,12,12,01,23,1006.30
2015,12,12,01,24,1006.33
2015,12,12,01,25,1006.33
2015,12,12,01,26,1006.33
2015,12,12,01,27,1006.40
2015,12,12,01,28,1006.37
2015,12,12,01,29,1006.37
2015,12,12,01,30,1006.37
2015,12,12,01,31,1006.37
2015,12,12,01,32,1006.37
2015,12,12,01,33,1006.37
2015,12,12,01,34,1006.37
2015,12,12,01,35,1006.37
2015,12,12,01,36,1006.37
2015,12,12,01,37,1006.37
2015,12,12,01,38,1006.37
2015,12,12,01,39,1006.37
2015,12,12,01,40,1006.33
2015,12,12,01,41,1006.33
2015,12,12,01,42,1006.33
2015,12,12,01,43,1006.33
2015,12,12,01,44,1006.33
2015,12,12,01,45,1006.30
2015,12,12,01,46,1006.33
2015,12,12,01,47,1006.37
2015,12,12,01,48,1006.33
2015,12,12,01,49,1006.33
2015,12,12,01,50,1006.37
2015,12,12,01,51,1006.33
2015,12,12,01,52,1006.40
2015,12,12,01,53,1006.37
2015,12,12,01,54,1006.37
2015,12,12,01,55,1006.40
2015,12,12,01,56,1006.37
2015,12,12,01,57,1006.37
2015,12,12,01,58,1006.40
2015,12,12,01,59,1006.44
2015,12,12,02,00,1006.44
2015,12,12,02,01,1006.47
2015,12,12,02,02,1006.47
2015,12,12,02,03,1006.47
2015,12,12,02,04,1006.50
2015,12,12,02,05,1006.54
2015,12,12,02,06,1006.54
2015,12,12,02,07,1006.60
2015,12,12,02,08,1006.57
2015,12,12,02,09,1006.57
2015,12,12,02,10,1006.54
2015,12,12,02,11,1006.54
2015,12,12,02,12,1006.50
2015,12,12,02,13,1006.50
2015,12,12,02,14,1006.50
2015,12,12,02,15,1006.47
2015,12,12,02,16,1006.44
2015,12,12,02,17,1006.40
2015,12,12,02,18,1006.33
2015,12,12,02,19,1006.37
2015,12,12,02,20,1006.33
2015,12,12,02,21,1006.27
2015,12,12,02,22,1006.30
2015,12,12,02,23,1006.23
2015,12,12,02,24,1006.23
2015,12,12,02,25,1006.20
2015,12,12,02,26,1006.20
2015,12,12,02,27,1006.20
2015,12,12,02,28,1006.20
2015,12,12,02,29,1006.13
2015,12,12,02,30,1006.13
2015,12,12,02,31,1006.16
2015,12,12,02,32,1006.20
2015,12,12,02,33,1006.16
2015,12,12,02,34,1006.16
2015,12,12,02,35,1006.20
2015,12,12,02,36,1006.20
2015,12,12,02,37,1006.13
2015,12,12,02,38,1006.13
2015,12,12,02,39,1006.13
2015,12,12,02,40,1006.13
2015,12,12,02,41,1006.13
2015,12,12,02,42,1006.13
2015,12,12,02,43,1006.13
2015,12,12,02,44,1006.13
2015,12,12,02,45,1006.10
2015,12,12,02,46,1006.06
2015,12,12,02,47,1006.06
2015,12,12,02,48,1006.06
2015,12,12,02,49,1006.03
2015,12,12,02,50,1006.03
2015,12,12,02,51,1005.96
2015,12,12,02,52,1005.93
2015,12,12,02,53,1005.89
2015,12,12,02,54,1005.86
2015,12,12,02,55,1005.86
2015,12,12,02,56,1005.83
2015,12,12,02,57,1005.83
2015,12,12,02,58,1005.83
2015,12,12,02,59,1005.83
2015,12,12,03,00,1005.83
2015,12,12,03,01,1005.86
2015,12,12,03,02,1005.86
2015,12,12,03,03,1005.86
2015,12,12,03,04,1005.83
2015,12,12,03,05,1005.76
2015,12,12,03,06,1005.72
2015,12,12,03,07,1005.72
2015,12,12,03,08,1005.72
2015,12,12,03,09,1005.76
2015,12,12,03,10,1005.69
2015,12,12,03,11,1005.69
2015,12,12,03,12,1005.68
2015,12,12,03,13,1005.59
2015,12,12,03,14,1005.55
2015,12,12,03,15,1005.59
2015,12,12,03,16,1005.55
2015,12,12,03,17,1005.55
2015,12,12,03,18,1005.62
2015,12,12,03,19,1005.62
2015,12,12,03,20,1005.59
2015,12,12,03,21,1005.55
2015,12,12,03,22,1005.59
2015,12,12,03,23,1005.59
2015,12,12,03,24,1005.62
2015,12,12,03,25,1005.59
2015,12,12,03,26,1005.59
2015,12,12,03,27,1005.59
2015,12,12,03,28,1005.55
2015,12,12,03,29,1005.59
2015,12,12,03,30,1005.59
2015,12,12,03,31,1005.59
2015,12,12,03,32,1005.62
2015,12,12,03,33,1005.62
2015,12,12,03,34,1005.59
2015,12,12,03,35,1005.62
2015,12,12,03,36,1005.59
2015,12,12,03,37,1005.59
2015,12,12,03,38,1005.55
2015,12,12,03,39,1005.49
2015,12,12,03,40,1005.42
2015,12,12,03,41,1005.39
2015,12,12,03,42,1005.35
2015,12,12,03,43,1005.28
2015,12,12,03,44,1005.28
2015,12,12,03,45,1005.25
2015,12,12,03,46,1005.22
2015,12,12,03,47,1005.22
2015,12,12,03,48,1005.22
2015,12,12,03,49,1005.18
2015,12,12,03,50,1005.22
2015,12,12,03,51,1005.22
2015,12,12,03,52,1005.18
2015,12,12,03,53,1005.22
2015,12,12,03,54,1005.22
2015,12,12,03,55,1005.18
2015,12,12,03,56,1005.22
2015,12,12,03,57,1005.18
2015,12,12,03,58,1005.15
2015,12,12,03,59,1005.18
2015,12,12,04,00,1005.18
2015,12,12,04,01,1005.18
2015,12,12,04,02,1005.18
2015,12,12,04,03,1005.18
2015,12,12,04,04,1005.18
2015,12,12,04,05,1005.18
2015,12,12,04,06,1005.18
2015,12,12,04,07,1005.18
2015,12,12,04,08,1005.18
2015,12,12,04,09,1005.11
2015,12,12,04,10,1005.11
2015,12,12,04,11,1005.11
2015,12,12,04,12,1005.11
2015,12,12,04,13,1005.05
2015,12,12,04,14,1005.01
2015,12,12,04,15,1004.98
2015,12,12,04,16,1004.91
2015,12,12,04,17,1004.91
2015,12,12,04,18,1004.81
2015,12,12,04,19,1004.81
2015,12,12,04,20,1004.81
2015,12,12,04,21,1004.78
2015,12,12,04,22,1004.78
2015,12,12,04,23,1004.78
2015,12,12,04,24,1004.78
2015,12,12,04,25,1004.74
2015,12,12,04,26,1004.71
2015,12,12,04,27,1004.67
2015,12,12,04,28,1004.61
2015,12,12,04,29,1004.61
2015,12,12,04,30,1004.54
2015,12,12,04,31,1004.57
2015,12,12,04,32,1004.50
2015,12,12,04,33,1004.47
2015,12,12,04,34,1004.47
2015,12,12,04,35,1004.44
2015,12,12,04,36,1004.47
2015,12,12,04,37,1004.40
2015,12,12,04,38,1004.37
2015,12,12,04,39,1004.34
2015,12,12,04,40,1004.30
2015,12,12,04,41,1004.34
2015,12,12,04,42,1004.34
2015,12,12,04,43,1004.37
2015,12,12,04,44,1004.34
2015,12,12,04,45,1004.37
2015,12,12,04,46,1004.30
2015,12,12,04,47,1004.37
2015,12,12,04,48,1004.40
2015,12,12,04,49,1004.40
2015,12,12,04,50,1004.34
2015,12,12,04,51,1004.27
2015,12,12,04,52,1004.23
2015,12,12,04,53,1004.23
2015,12,12,04,54,1004.27
2015,12,12,04,55,1004.27
2015,12,12,04,56,1004.27
2015,12,12,04,57,1004.27
2015,12,12,04,58,1004.30
2015,12,12,04,59,1004.34
2015,12,12,05,00,1004.37
2015,12,12,05,01,1004.40
2015,12,12,05,02,1004.40
2015,12,12,05,03,1004.44
2015,12,12,05,04,1004.47
2015,12,12,05,05,1004.44
2015,12,12,05,06,1004.40
2015,12,12,05,07,1004.40
2015,12,12,05,08,1004.40
2015,12,12,05,09,1004.37
2015,12,12,05,10,1004.34
2015,12,12,05,11,1004.34
2015,12,12,05,12,1004.30
2015,12,12,05,13,1004.27
2015,12,12,05,14,1004.27
2015,12,12,05,15,1004.27
2015,12,12,05,16,1004.27
2015,12,12,05,17,1004.20
2015,12,12,05,18,1004.20
2015,12,12,05,19,1004.17
2015,12,12,05,20,1004.13
2015,12,12,05,21,1004.13
2015,12,12,05,22,1004.10
2015,12,12,05,23,1004.10
2015,12,12,05,24,1004.13
2015,12,12,05,25,1004.13
2015,12,12,05,26,1004.17
2015,12,12,05,27,1004.10
2015,12,12,05,28,1004.10
2015,12,12,05,29,1004.10
2015,12,12,05,30,1004.00
2015,12,12,05,31,1004.00
2015,12,12,05,32,1004.03
2015,12,12,05,33,1004.00
2015,12,12,05,34,1004.06
2015,12,12,05,35,1004.10
2015,12,12,05,36,1004.10
2015,12,12,05,37,1004.10
2015,12,12,05,38,1004.10
2015,12,12,05,39,1004.06
2015,12,12,05,40,1004.10
2015,12,12,05,41,1004.13
2015,12,12,05,42,1004.10
2015,12,12,05,43,1004.10
2015,12,12,05,44,1004.06
2015,12,12,05,45,1003.99
2015,12,12,05,46,1003.90
2015,12,12,05,47,1003.90
2015,12,12,05,48,1003.83
2015,12,12,05,49,1003.86
2015,12,12,05,50,1003.79
2015,12,12,05,51,1003.76
2015,12,12,05,52,1003.76
2015,12,12,05,53,1003.69
2015,12,12,05,54,1003.73
2015,12,12,05,55,1003.69
2015,12,12,05,56,1003.66
2015,12,12,05,57,1003.66
2015,12,12,05,58,1003.69
2015,12,12,05,59,1003.66
2015,12,12,06,00,1003.69
2015,12,12,06,01,1003.62
2015,12,12,06,02,1003.62
2015,12,12,06,03,1003.66
2015,12,12,06,04,1003.62
2015,12,12,06,05,1003.62
2015,12,12,06,06,1003.59
2015,12,12,06,07,1003.56
2015,12,12,06,08,1003.56
2015,12,12,06,09,1003.56
2015,12,12,06,10,1003.56
2015,12,12,06,11,1003.56
2015,12,12,06,12,1003.52
2015,12,12,06,13,1003.49
2015,12,12,06,14,1003.42
2015,12,12,06,15,1003.39
2015,12,12,06,16,1003.35
2015,12,12,06,17,1003.35
2015,12,12,06,18,1003.32
2015,12,12,06,19,1003.29
2015,12,12,06,20,1003.25
2015,12,12,06,21,1003.25
2015,12,12,06,22,1003.22
2015,12,12,06,23,1003.18
2015,12,12,06,24,1003.22
2015,12,12,06,25,1003.15
2015,12,12,06,26,1003.12
2015,12,12,06,27,1003.12
2015,12,12,06,28,1003.05
2015,12,12,06,29,1003.05
2015,12,12,06,30,1003.05
2015,12,12,06,31,1003.05
2015,12,12,06,32,1002.98
2015,12,12,06,33,1002.98
2015,12,12,06,34,1002.91
2015,12,12,06,35,1002.88
2015,12,12,06,36,1002.88
2015,12,12,06,37,1002.81
2015,12,12,06,38,1002.81
2015,12,12,06,39,1002.74
2015,12,12,06,40,1002.71
2015,12,12,06,41,1002.64
2015,12,12,06,42,1002.57
2015,12,12,06,43,1002.51
2015,12,12,06,44,1002.47
2015,12,12,06,45,1002.41
2015,12,12,06,46,1002.41
2015,12,12,06,47,1002.37
2015,12,12,06,48,1002.34
2015,12,12,06,49,1002.30
2015,12,12,06,50,1002.34
2015,12,12,06,51,1002.34
2015,12,12,06,52,1002.27
2015,12,12,06,53,1002.24
2015,12,12,06,54,1002.24
2015,12,12,06,55,1002.24
2015,12,12,06,56,1002.20
2015,12,12,06,57,1002.24
2015,12,12,06,58,1002.17
2015,12,12,06,59,1002.20
2015,12,12,07,00,1002.24
2015,12,12,07,01,1002.24
2015,12,12,07,02,1002.24
2015,12,12,07,03,1002.24
2015,12,12,07,04,1002.24
2015,12,12,07,05,1002.24
2015,12,12,07,06,1002.17
2015,12,12,07,07,1002.10
2015,12,12,07,08,1002.10
2015,12,12,07,09,1002.03
2015,12,12,07,10,1002.03
2015,12,12,07,11,1001.97
2015,12,12,07,12,1001.93
2015,12,12,07,13,1001.90
2015,12,12,07,14,1001.90
2015,12,12,07,15,1001.93
2015,12,12,07,16,1001.86
2015,12,12,07,17,1001.80
2015,12,12,07,18,1001.80
2015,12,12,07,19,1001.76
2015,12,12,07,20,1001.76
2015,12,12,07,21,1001.76
2015,12,12,07,22,1001.76
2015,12,12,07,23,1001.80
2015,12,12,07,24,1001.80
2015,12,12,07,25,1001.86
2015,12,12,07,26,1001.80
2015,12,12,07,27,1001.86
2015,12,12,07,28,1001.90
2015,12,12,07,29,1001.93
2015,12,12,07,30,1001.97
2015,12,12,07,31,1001.90
2015,12,12,07,32,1001.86
2015,12,12,07,33,1001.86
2015,12,12,07,34,1001.83
2015,12,12,07,35,1001.83
2015,12,12,07,36,1001.80
2015,12,12,07,37,1001.76
2015,12,12,07,38,1001.73
2015,12,12,07,39,1001.69
2015,12,12,07,40,1001.66
2015,12,12,07,41,1001.66
2015,12,12,07,42,1001.69
2015,12,12,07,43,1001.74
2015,12,12,07,44,1001.86
2015,12,12,07,45,1001.83
2015,12,12,07,46,1001.83
2015,12,12,07,47,1001.83
2015,12,12,07,48,1001.76
2015,12,12,07,49,1001.76
2015,12,12,07,50,1001.66
2015,12,12,07,51,1001.69
2015,12,12,07,52,1001.63
2015,12,12,07,53,1001.66
2015,12,12,07,54,1001.63
2015,12,12,07,55,1001.63
2015,12,12,07,56,1001.63
2015,12,12,07,57,1001.59
2015,12,12,07,58,1001.59
2015,12,12,07,59,1001.49
2015,12,12,08,00,1001.42
2015,12,12,08,01,1001.42
2015,12,12,08,02,1001.39
2015,12,12,08,03,1001.36
2015,12,12,08,04,1001.32
2015,12,12,08,05,1001.29
2015,12,12,08,06,1001.25
2015,12,12,08,07,1001.25
2015,12,12,08,08,1001.29
2015,12,12,08,09,1001.29
2015,12,12,08,10,1001.25
2015,12,12,08,11,1001.15
2015,12,12,08,12,1001.15
2015,12,12,08,13,1001.15
2015,12,12,08,14,1001.19
2015,12,12,08,15,1001.12
2015,12,12,08,16,1001.08
2015,12,12,08,17,1000.98
2015,12,12,08,18,1000.95
2015,12,12,08,19,1000.95
2015,12,12,08,20,1000.98
2015,12,12,08,21,1000.98
2015,12,12,08,22,1000.95
2015,12,12,08,23,1000.88
2015,12,12,08,24,1000.81
2015,12,12,08,25,1000.78
2015,12,12,08,26,1000.78
2015,12,12,08,27,1000.78
2015,12,12,08,28,1000.75
2015,12,12,08,29,1000.71
2015,12,12,08,30,1000.68
2015,12,12,08,31,1000.64
2015,12,12,08,32,1000.61
2015,12,12,08,33,1000.54
2015,12,12,08,34,1000.58
2015,12,12,08,35,1000.54
2015,12,12,08,36,1000.48
2015,12,12,08,37,1000.48
2015,12,12,08,38,1000.44
2015,12,12,08,39,1000.41
2015,12,12,08,40,1000.44
2015,12,12,08,41,1000.44
2015,12,12,08,42,1000.41
2015,12,12,08,43,1000.41
2015,12,12,08,44,1000.41
2015,12,12,08,45,1000.41
2015,12,12,08,46,1000.34
2015,12,12,08,47,1000.34
2015,12,12,08,48,1000.30
2015,12,12,08,49,1000.20
2015,12,12,08,50,1000.24
2015,12,12,08,51,1000.27
2015,12,12,08,52,1000.24
2015,12,12,08,53,1000.24
2015,12,12,08,54,1000.20
2015,12,12,08,55,1000.20
2015,12,12,08,56,1000.20
2015,12,12,08,57,1000.24
2015,12,12,08,58,1000.17
2015,12,12,08,59,1000.17
2015,12,12,09,00,1000.14
2015,12,12,09,01,1000.17
2015,12,12,09,02,1000.17
2015,12,12,09,03,1000.17
2015,12,12,09,04,1000.17
2015,12,12,09,05,1000.17
2015,12,12,09,06,1000.10
2015,12,12,09,07,1000.10
2015,12,12,09,08,1000.07
2015,12,12,09,09,1000.03
2015,12,12,09,10,999.97
2015,12,12,09,11,999.97
2015,12,12,09,12,999.93
2015,12,12,09,13,999.90
2015,12,12,09,14,999.87
2015,12,12,09,15,999.87
2015,12,12,09,16,999.80
2015,12,12,09,17,999.76
2015,12,12,09,18,999.73
2015,12,12,09,19,999.66
2015,12,12,09,20,999.63
2015,12,12,09,21,999.66
2015,12,12,09,22,999.59
2015,12,12,09,23,999.59
2015,12,12,09,24,999.59
2015,12,12,09,25,999.56
2015,12,12,09,26,999.53
2015,12,12,09,27,999.49
2015,12,12,09,28,999.39
2015,12,12,09,29,999.36
2015,12,12,09,30,999.36
2015,12,12,09,31,999.32
2015,12,12,09,32,999.26
2015,12,12,09,33,999.26
2015,12,12,09,34,999.22
2015,12,12,09,35,999.15
2015,12,12,09,36,999.15
2015,12,12,09,37,999.15
2015,12,12,09,38,999.12
2015,12,12,09,39,999.09
2015,12,12,09,40,999.05
2015,12,12,09,41,999.02
2015,12,12,09,42,999.05
2015,12,12,09,43,998.95
2015,12,12,09,44,998.95
2015,12,12,09,45,998.99
2015,12,12,09,46,998.95
2015,12,12,09,47,998.95
2015,12,12,09,48,998.88
2015,12,12,09,49,998.92
2015,12,12,09,50,998.85
2015,12,12,09,51,998.85
2015,12,12,09,52,998.78
2015,12,12,09,53,998.78
2015,12,12,09,54,998.71
2015,12,12,09,55,998.78
2015,12,12,09,56,998.71
2015,12,12,09,57,998.71
2015,12,12,09,58,998.68
2015,12,12,09,59,998.68
2015,12,12,10,00,998.61
2015,12,12,10,01,998.54
2015,12,12,10,02,998.48
2015,12,12,10,03,998.51
2015,12,12,10,04,998.48
2015,12,12,10,05,998.44
2015,12,12,10,06,998.44
2015,12,12,10,07,998.38
2015,12,12,10,08,998.38
2015,12,12,10,09,998.31
2015,12,12,10,10,998.24
2015,12,12,10,11,998.24
2015,12,12,10,12,998.17
2015,12,12,10,13,998.10
2015,12,12,10,14,998.07
2015,12,12,10,15,998.04
2015,12,12,10,16,998.00
2015,12,12,10,17,997.93
2015,12,12,10,18,997.83
2015,12,12,10,19,997.87
2015,12,12,10,20,997.87
2015,12,12,10,21,997.83
2015,12,12,10,22,997.77
2015,12,12,10,23,997.77
2015,12,12,10,24,997.77
2015,12,12,10,25,997.64
2015,12,12,10,26,997.56
2015,12,12,10,27,997.56
2015,12,12,10,28,997.60
2015,12,12,10,29,997.56
2015,12,12,10,30,997.62
2015,12,12,10,31,997.50
2015,12,12,10,32,997.53
2015,12,12,10,33,997.50
2015,12,12,10,34,997.50
2015,12,12,10,35,997.46
2015,12,12,10,36,997.35
2015,12,12,10,37,997.22
2015,12,12,10,38,997.28
2015,12,12,10,39,997.19
2015,12,12,10,40,997.09
2015,12,12,10,41,997.02
2015,12,12,10,42,996.92
2015,12,12,10,43,996.89
2015,12,12,10,44,996.82
2015,12,12,10,45,996.82
2015,12,12,10,46,996.75
2015,12,12,10,47,996.68
2015,12,12,10,48,996.65
2015,12,12,10,49,996.61
2015,12,12,10,50,996.48
2015,12,12,10,51,996.48
2015,12,12,10,52,996.41
2015,12,12,10,53,996.34
2015,12,12,10,54,996.31
2015,12,12,10,55,996.24
2015,12,12,10,56,996.21
2015,12,12,10,57,996.14
2015,12,12,10,58,996.07
2015,12,12,10,59,995.97
2015,12,12,11,00,995.94
2015,12,12,11,01,995.87
2015,12,12,11,02,995.84
2015,12,12,11,03,995.70
2015,12,12,11,04,995.60
2015,12,12,11,05,995.50
2015,12,12,11,06,995.43
2015,12,12,11,07,995.39
2015,12,12,11,08,995.23
2015,12,12,11,09,995.22
2015,12,12,11,10,995.12
2015,12,12,11,11,995.03
2015,12,12,11,12,995.02
2015,12,12,11,13,994.96
2015,12,12,11,14,994.75
2015,12,12,11,15,994.68
2015,12,12,11,16,994.62
2015,12,12,11,17,994.62
2015,12,12,11,18,994.58
2015,12,12,11,19,994.58
2015,12,12,11,20,994.58
2015,12,12,11,21,994.58
2015,12,12,11,22,994.54
2015,12,12,11,23,994.45
2015,12,12,11,24,994.38
2015,12,12,11,25,994.24
2015,12,12,11,26,994.24
2015,12,12,11,27,994.11
2015,12,12,11,28,994.07
2015,12,12,11,29,994.01
2015,12,12,11,30,993.97
2015,12,12,11,31,993.97
2015,12,12,11,32,993.94
2015,12,12,11,33,993.74
2015,12,12,11,34,993.70
2015,12,12,11,35,993.63
2015,12,12,11,36,993.53
2015,12,12,11,37,993.47
2015,12,12,11,38,993.43
2015,12,12,11,39,993.36
2015,12,12,11,40,993.33
2015,12,12,11,41,993.23
2015,12,12,11,42,993.19
2015,12,12,11,43,993.19
2015,12,12,11,44,993.13
2015,12,12,11,45,993.16
2015,12,12,11,46,993.16
2015,12,12,11,47,993.16
2015,12,12,11,48,993.03
2015,12,12,11,49,992.99
2015,12,12,11,50,992.92
2015,12,12,11,51,992.92
2015,12,12,11,52,992.89
2015,12,12,11,53,992.89
2015,12,12,11,54,992.86
2015,12,12,11,55,992.85
2015,12,12,11,56,992.69
2015,12,12,11,57,992.72
2015,12,12,11,58,992.58
2015,12,12,11,59,992.52
2015,12,12,12,00,992.48
2015,12,12,12,01,992.38
2015,12,12,12,02,992.28
2015,12,12,12,03,992.21
2015,12,12,12,04,992.14
2015,12,12,12,05,992.04
2015,12,12,12,06,991.94
2015,12,12,12,07,991.84
2015,12,12,12,08,991.74
2015,12,12,12,09,991.63
2015,12,12,12,10,991.49
2015,12,12,12,11,991.33
2015,12,12,12,12,991.37
2015,12,12,12,13,991.37
2015,12,12,12,14,991.33
2015,12,12,12,15,991.37
2015,12,12,12,16,991.30
2015,12,12,12,17,991.37
2015,12,12,12,18,991.33
2015,12,12,12,19,991.30
2015,12,12,12,20,991.29
2015,12,12,12,21,991.16
2015,12,12,12,22,991.03
2015,12,12,12,23,990.96
2015,12,12,12,24,990.96
2015,12,12,12,25,990.93
2015,12,12,12,26,990.86
2015,12,12,12,27,990.76
2015,12,12,12,28,990.69
2015,12,12,12,29,990.62
2015,12,12,12,30,990.49
2015,12,12,12,31,990.35
2015,12,12,12,32,990.35
2015,12,12,12,33,990.28
2015,12,12,12,34,990.18
2015,12,12,12,35,990.21
2015,12,12,12,36,990.18
2015,12,12,12,37,990.09
2015,12,12,12,38,989.97
2015,12,12,12,39,989.77
2015,12,12,12,40,989.91
2015,12,12,12,41,989.88
2015,12,12,12,42,989.81
2015,12,12,12,43,989.94
2015,12,12,12,44,989.84
2015,12,12,12,45,989.74
2015,12,12,12,46,989.84
2015,12,12,12,47,989.74
2015,12,12,12,48,989.67
2015,12,12,12,49,989.73
2015,12,12,12,50,989.60
2015,12,12,12,51,989.47
2015,12,12,12,52,989.54
2015,12,12,12,53,989.57
2015,12,12,12,54,989.54
2015,12,12,12,55,989.34
2015,12,12,12,56,989.43
2015,12,12,12,57,989.30
2015,12,12,12,58,989.33
2015,12,12,12,59,989.33
2015,12,12,13,00,989.30
2015,12,12,13,01,989.13
2015,12,12,13,02,989.13
2015,12,12,13,03,989.05
2015,12,12,13,04,988.93
2015,12,12,13,05,988.96
2015,12,12,13,06,988.93
2015,12,12,13,07,988.93
2015,12,12,13,08,988.83
2015,12,12,13,09,988.66
2015,12,12,13,10,988.59
2015,12,12,13,11,988.52
2015,12,12,13,12,988.42
2015,12,12,13,13,988.42
2015,12,12,13,14,988.42
2015,12,12,13,15,988.39
2015,12,12,13,16,988.25
2015,12,12,13,17,988.25
2015,12,12,13,18,988.34
2015,12,12,13,19,988.22
2015,12,12,13,20,988.28
2015,12,12,13,21,988.39
2015,12,12,13,22,988.26
2015,12,12,13,23,988.25
2015,12,12,13,24,988.18
2015,12,12,13,25,988.10
2015,12,12,13,26,987.98
2015,12,12,13,27,988.01
2015,12,12,13,28,988.01
2015,12,12,13,29,987.95
2015,12,12,13,30,987.91
2015,12,12,13,31,987.88
2015,12,12,13,32,987.95
2015,12,12,13,33,987.84
2015,12,12,13,34,987.74
2015,12,12,13,35,987.74
2015,12,12,13,36,987.71
2015,12,12,13,37,987.67
2015,12,12,13,38,987.71
2015,12,12,13,39,987.67
2015,12,12,13,40,987.54
2015,12,12,13,41,987.64
2015,12,12,13,42,987.57
2015,12,12,13,43,987.51
2015,12,12,13,44,987.44
2015,12,12,13,45,987.44
2015,12,12,13,46,987.37
2015,12,12,13,47,987.34
2015,12,12,13,48,987.27
2015,12,12,13,49,987.17
2015,12,12,13,50,987.10
2015,12,12,13,51,987.13
2015,12,12,13,52,987.10
2015,12,12,13,53,986.96
2015,12,12,13,54,986.93
2015,12,12,13,55,986.96
2015,12,12,13,56,986.86
2015,12,12,13,57,986.79
2015,12,12,13,58,986.70
2015,12,12,13,59,986.79
2015,12,12,14,00,986.69
2015,12,12,14,01,986.66
2015,12,12,14,02,986.56
2015,12,12,14,03,986.52
2015,12,12,14,04,986.49
2015,12,12,14,05,986.52
2015,12,12,14,06,986.42
2015,12,12,14,07,986.46
2015,12,12,14,08,986.46
2015,12,12,14,09,986.42
2015,12,12,14,10,986.42
2015,12,12,14,11,986.39
2015,12,12,14,12,986.46
2015,12,12,14,13,986.46
2015,12,12,14,14,986.52
2015,12,12,14,15,986.46
2015,12,12,14,16,986.42
2015,12,12,14,17,986.39
2015,12,12,14,18,986.32
2015,12,12,14,19,986.18
2015,12,12,14,20,986.18
2015,12,12,14,21,986.18
2015,12,12,14,22,986.12
2015,12,12,14,23,986.18
2015,12,12,14,24,986.08
2015,12,12,14,25,986.02
2015,12,12,14,26,985.85
2015,12,12,14,27,985.74
2015,12,12,14,28,985.81
2015,12,12,14,29,985.71
2015,12,12,14,30,985.68
2015,12,12,14,31,985.71
2015,12,12,14,32,985.74
2015,12,12,14,33,985.64
2015,12,12,14,34,985.68
2015,12,12,14,35,985.71
2015,12,12,14,36,985.68
2015,12,12,14,37,985.65
2015,12,12,14,38,985.71
2015,12,12,14,39,985.74
2015,12,12,14,40,985.61
2015,12,12,14,41,985.64
2015,12,12,14,42,985.64
2015,12,12,14,43,985.61
2015,12,12,14,44,985.61
2015,12,12,14,45,985.61
2015,12,12,14,46,985.51
2015,12,12,14,47,985.47
2015,12,12,14,48,985.41
2015,12,12,14,49,985.44
2015,12,12,14,50,985.37
2015,12,12,14,51,985.44
2015,12,12,14,52,985.34
2015,12,12,14,53,985.30
2015,12,12,14,54,985.30
2015,12,12,14,55,985.27
2015,12,12,14,56,985.24
2015,12,12,14,57,985.07
2015,12,12,14,58,984.97
2015,12,12,14,59,984.83
2015,12,12,15,00,984.93
2015,12,12,15,01,985.03
2015,12,12,15,02,985.00
2015,12,12,15,03,985.07
2015,12,12,15,04,985.03
2015,12,12,15,05,985.07
2015,12,12,15,06,985.03
2015,12,12,15,07,985.00
2015,12,12,15,08,984.97
2015,12,12,15,09,984.76
2015,12,12,15,10,984.69
2015,12,12,15,11,984.79
2015,12,12,15,12,984.73
2015,12,12,15,13,984.80
2015,12,12,15,14,984.76
2015,12,12,15,15,984.76
2015,12,12,15,16,984.73
2015,12,12,15,17,984.83
2015,12,12,15,18,984.83
2015,12,12,15,19,984.76
2015,12,12,15,20,984.69
2015,12,12,15,21,984.63
2015,12,12,15,22,984.59
2015,12,12,15,23,984.63
2015,12,12,15,24,984.73
2015,12,12,15,25,984.80
2015,12,12,15,26,984.80
2015,12,12,15,27,984.86
2015,12,12,15,28,984.86
2015,12,12,15,29,984.86
2015,12,12,15,30,984.80
2015,12,12,15,31,984.73
2015,12,12,15,32,984.86
2015,12,12,15,33,984.80
2015,12,12,15,34,984.80
2015,12,12,15,35,984.76
2015,12,12,15,36,984.73
2015,12,12,15,37,984.63
2015,12,12,15,38,984.59
2015,12,12,15,39,984.56
2015,12,12,15,40,984.63
2015,12,12,15,41,984.63
2015,12,12,15,42,984.59
2015,12,12,15,43,984.53
2015,12,12,15,44,984.53
2015,12,12,15,45,984.56
2015,12,12,15,46,984.53
2015,12,12,15,47,984.53
2015,12,12,15,48,984.49
2015,12,12,15,49,984.46
2015,12,12,15,50,984.59
2015,12,12,15,51,984.53
2015,12,12,15,52,984.42
2015,12,12,15,53,984.42
2015,12,12,15,54,984.25
2015,12,12,15,55,984.22
2015,12,12,15,56,984.19
2015,12,12,15,57,984.12
2015,12,12,15,58,984.03
2015,12,12,15,59,984.05
2015,12,12,16,00,984.05
2015,12,12,16,01,984.02
2015,12,12,16,02,984.02
2015,12,12,16,03,983.92
2015,12,12,16,04,983.88
2015,12,12,16,05,983.81
2015,12,12,16,06,983.78
2015,12,12,16,07,983.68
2015,12,12,16,08,983.64
2015,12,12,16,09,983.58
2015,12,12,16,10,983.54
2015,12,12,16,11,983.58
2015,12,12,16,12,983.64
2015,12,12,16,13,983.68